Time,TemperatureF,DewpointF,PressureIn,WindDirection,WindDirectionDegrees,WindSpeedMPH,WindSpeedGustMPH,Humidity,HourlyPrecipIn,Conditions,Clouds,dailyrainin,SolarRadiationWatts/m^2,SoftwareType,DateUTC
2013-12-26 00:03:00,36.3,6.3,30.38,East,101,0.0,5.0,28,0.00,,,0.00,0,WeatherCatV1.23B16,2013-12-26 08:03:00,
2013-12-26 00:08:00,36.3,6.3,30.38,ESE,102,1.0,4.0,28,0.00,,,0.00,0,WeatherCatV1.23B16,2013-12-26 08:08:00,
2013-12-26 00:13:00,36.3,7.1,30.38,East,100,0.0,2.0,29,0.00,,,0.00,0,WeatherCatV1.23B16,2013-12-26 08:13:00,
2013-12-26 00:18:00,36.2,6.3,30.38,ESE,105,4.0,4.0,28,0.00,,,0.00,0,WeatherCatV1.23B16,2013-12-26 08:18:00,
2013-12-26 00:23:00,36.0,6.1,30.38,ESE,103,2.0,4.0,28,0.00,,,0.00,0,WeatherCatV1.23B16,2013-12-26 08:23:00,
2013-12-26 00:28:00,36.0,6.1,30.38,East,98,0.0,5.0,28,0.00,,,0.00,0,WeatherCatV1.23B16,2013-12-26 08:28:00,
2013-12-26 00:33:00,36.2,6.3,30.37,ESE,102,0.0,4.0,28,0.00,,,0.00,0,WeatherCatV1.23B16,2013-12-26 08:33:00,
2013-12-26 00:38:00,36.0,5.3,30.37,ESE,106,5.0,5.0,27,0.00,,,0.00,0,WeatherCatV1.23B16,2013-12-26 08:38:00,
2013-12-26 00:43:00,35.9,5.2,30.37,ESE,106,0.0,4.0,27,0.00,,,0.00,0,WeatherCatV1.23B16,2013-12-26 08:43:00,
2013-12-26 00:48:00,35.9,6.0,30.37,East,100,1.0,4.0,28,0.00,,,0.00,0,WeatherCatV1.23B16,2013-12-26 08:48:00,
2013-12-26 00:53:00,36.0,6.1,30.37,ESE,104,2.0,6.0,28,0.00,,,0.00,0,WeatherCatV1.23B16,2013-12-26 08:53:00,
2013-12-26 00:58:00,36.0,5.3,30.37,ESE,105,5.0,5.0,27,0.00,,,0.00,0,WeatherCatV1.23B16,2013-12-26 08:58:00,
2013-12-26 01:03:00,36.0,6.1,30.37,ESE,106,3.0,5.0,28,0.00,,,0.00,0,WeatherCatV1.23B16,2013-12-26 09:03:00,
2013-12-26 01:08:00,35.9,6.0,30.37,East,96,3.0,7.0,28,0.00,,,0.00,0,WeatherCatV1.23B16,2013-12-26 09:08:00,
2013-12-26 01:13:00,36.0,5.3,30.37,ESE,103,0.0,6.0,27,0.00,,,0.00,0,WeatherCatV1.23B16,2013-12-26 09:13:00,
2013-12-26 01:18:00,36.3,5.6,30.37,ESE,116,4.0,6.0,27,0.00,,,0.00,0,WeatherCatV1.23B16,2013-12-26 09:18:00,
2013-12-26 01:23:00,36.6,5.0,30.37,East,101,3.0,6.0,26,0.00,,,0.00,0,WeatherCatV1.23B16,2013-12-26 09:23:00,
2013-12-26 01:28:00,36.9,4.4,30.37,ESE,116,8.0,10.0,25,0.00,,,0.00,0,WeatherCatV1.23B16,2013-12-26 09:28:00,
2013-12-26 01:33:00,37.2,3.8,30.35,ESE,103,3.0,11.0,24,0.00,,,0.00,0,WeatherCatV1.23B16,2013-12-26 09:33:00,
2013-12-26 01:38:00,37.2,3.8,30.35,East,84,4.0,6.0,24,0.00,,,0.00,0,WeatherCatV1.23B16,2013-12-26 09:38:00,
2013-12-26 01:43:00,37.3,2.9,30.35,East,101,0.0,10.0,23,0.00,,,0.00,0,WeatherCatV1.23B16,2013-12-26 09:43:00,
2013-12-26 01:48:00,37.3,2.9,30.36,East,97,3.0,5.0,23,0.00,,,0.00,0,WeatherCatV1.23B16,2013-12-26 09:48:00,
2013-12-26 01:53:00,37.5,3.1,30.36,ESE,108,3.0,9.0,23,0.00,,,0.00,0,WeatherCatV1.23B16,2013-12-26 09:53:00,
2013-12-26 01:58:00,37.6,4.1,30.36,ESE,118,6.0,10.0,24,0.00,,,0.00,0,WeatherCatV1.23B16,2013-12-26 09:58:00,
2013-12-26 02:03:00,37.5,4.0,30.36,ENE,67,0.0,5.0,24,0.00,,,0.00,0,WeatherCatV1.23B16,2013-12-26 10:03:00,
2013-12-26 02:08:00,37.5,4.0,30.36,ENE,70,0.0,4.0,24,0.00,,,0.00,0,WeatherCatV1.23B16,2013-12-26 10:08:00,
2013-12-26 02:13:00,37.3,4.7,30.36,ENE,72,0.0,3.0,25,0.00,,,0.00,0,WeatherCatV1.23B16,2013-12-26 10:13:00,
2013-12-26 02:18:00,37.2,4.7,30.39,East,93,0.0,4.0,25,0.00,,,0.00,0,WeatherCatV1.23B16,2013-12-26 10:18:00,
2013-12-26 02:23:00,36.9,4.4,30.39,East,94,2.0,2.0,25,0.00,,,0.00,0,WeatherCatV1.23B16,2013-12-26 10:23:00,
2013-12-26 02:28:00,36.8,4.3,30.39,ESE,106,0.0,4.0,25,0.00,,,0.00,0,WeatherCatV1.23B16,2013-12-26 10:28:00,
2013-12-26 02:33:00,36.5,4.9,30.39,ESE,105,0.0,3.0,26,0.00,,,0.00,0,WeatherCatV1.23B16,2013-12-26 10:33:00,
2013-12-26 02:38:00,36.3,4.7,30.39,ESE,103,0.0,4.0,26,0.00,,,0.00,0,WeatherCatV1.23B16,2013-12-26 10:38:00,
2013-12-26 02:43:00,36.3,4.7,30.39,ESE,103,0.0,5.0,26,0.00,,,0.00,0,WeatherCatV1.23B16,2013-12-26 10:43:00,
2013-12-26 02:48:00,36.2,4.7,30.39,ESE,106,3.0,4.0,26,0.00,,,0.00,0,WeatherCatV1.23B16,2013-12-26 10:48:00,
2013-12-26 02:53:00,36.2,4.7,30.39,ESE,103,0.0,2.0,26,0.00,,,0.00,0,WeatherCatV1.23B16,2013-12-26 10:53:00,
2013-12-26 02:58:00,36.2,5.5,30.39,ESE,106,2.0,5.0,27,0.00,,,0.00,0,WeatherCatV1.23B16,2013-12-26 10:58:00,
2013-12-26 03:03:00,36.2,5.5,30.39,ESE,106,3.0,4.0,27,0.00,,,0.00,0,WeatherCatV1.23B16,2013-12-26 11:03:00,
2013-12-26 03:08:00,36.3,4.7,30.39,ESE,109,5.0,5.0,26,0.00,,,0.00,0,WeatherCatV1.23B16,2013-12-26 11:08:00,
2013-12-26 03:13:00,36.2,5.5,30.39,ESE,106,3.0,3.0,27,0.00,,,0.00,0,WeatherCatV1.23B16,2013-12-26 11:13:00,
2013-12-26 03:18:00,35.8,5.1,30.41,ESE,109,5.0,5.0,27,0.00,,,0.00,0,WeatherCatV1.23B16,2013-12-26 11:18:00,
2013-12-26 03:23:00,35.8,5.1,30.41,ESE,112,4.0,5.0,27,0.00,,,0.00,0,WeatherCatV1.23B16,2013-12-26 11:23:00,
2013-12-26 03:28:00,35.8,5.9,30.41,ESE,106,4.0,5.0,28,0.00,,,0.00,0,WeatherCatV1.23B16,2013-12-26 11:28:00,
2013-12-26 03:33:00,35.8,5.1,30.41,ESE,111,4.0,5.0,27,0.00,,,0.00,0,WeatherCatV1.23B16,2013-12-26 11:33:00,
2013-12-26 03:38:00,35.8,5.1,30.41,ESE,110,1.0,4.0,27,0.00,,,0.00,0,WeatherCatV1.23B16,2013-12-26 11:38:00,
2013-12-26 03:43:00,35.6,5.8,30.41,ESE,109,0.0,4.0,28,0.00,,,0.00,0,WeatherCatV1.23B16,2013-12-26 11:43:00,
2013-12-26 03:48:00,35.6,5.0,30.41,ESE,109,2.0,4.0,27,0.00,,,0.00,0,WeatherCatV1.23B16,2013-12-26 11:48:00,
2013-12-26 03:53:00,35.8,4.3,30.41,ESE,103,0.0,4.0,26,0.00,,,0.00,0,WeatherCatV1.23B16,2013-12-26 11:53:00,
2013-12-26 03:58:00,35.9,4.4,30.41,ESE,108,2.0,4.0,26,0.00,,,0.00,0,WeatherCatV1.23B16,2013-12-26 11:58:00,
2013-12-26 04:03:00,36.0,4.5,30.41,ESE,108,2.0,3.0,26,0.00,,,0.00,0,WeatherCatV1.23B16,2013-12-26 12:03:00,
2013-12-26 04:08:00,36.0,5.3,30.41,ESE,108,1.0,3.0,27,0.00,,,0.00,0,WeatherCatV1.23B16,2013-12-26 12:08:00,
2013-12-26 04:13:00,35.6,5.0,30.41,ESE,108,2.0,2.0,27,0.00,,,0.00,0,WeatherCatV1.23B16,2013-12-26 12:13:00,
2013-12-26 04:18:00,35.3,5.5,30.44,ESE,107,0.0,2.0,28,0.00,,,0.00,0,WeatherCatV1.23B16,2013-12-26 12:18:00,
2013-12-26 04:23:00,35.0,5.2,30.44,ESE,108,0.0,1.0,28,0.00,,,0.00,0,WeatherCatV1.23B16,2013-12-26 12:23:00,
2013-12-26 04:28:00,34.9,5.1,30.44,ESE,108,2.0,3.0,28,0.00,,,0.00,0,WeatherCatV1.23B16,2013-12-26 12:28:00,
2013-12-26 04:34:00,34.6,4.1,30.46,ESE,108,0.0,0.0,27,0.00,,,0.00,0,WeatherCatV1.23B16,2013-12-26 12:34:00,
2013-12-26 04:39:00,34.7,5.0,30.46,ESE,103,0.0,3.0,28,0.00,,,0.00,0,WeatherCatV1.23B16,2013-12-26 12:39:00,
2013-12-26 04:44:00,34.9,5.1,30.46,ESE,103,2.0,4.0,28,0.00,,,0.00,0,WeatherCatV1.23B16,2013-12-26 12:44:00,
2013-12-26 04:49:00,35.0,5.2,30.46,ESE,105,2.0,4.0,28,0.00,,,0.00,0,WeatherCatV1.23B16,2013-12-26 12:49:00,
2013-12-26 04:54:00,35.0,5.2,30.46,ESE,112,2.0,3.0,28,0.00,,,0.00,0,WeatherCatV1.23B16,2013-12-26 12:54:00,
2013-12-26 04:59:00,34.7,5.0,30.46,ESE,111,2.0,4.0,28,0.00,,,0.00,0,WeatherCatV1.23B16,2013-12-26 12:59:00,
2013-12-26 05:04:00,34.7,4.2,30.46,ESE,105,2.0,3.0,27,0.00,,,0.00,0,WeatherCatV1.23B16,2013-12-26 13:04:00,
2013-12-26 05:05:00,34.7,5.0,30.46,ESE,104,1.0,2.0,28,0.00,,,0.00,0,WeatherCatV1.23B16,2013-12-26 13:05:00,
2013-12-26 05:10:00,34.6,4.9,30.46,ESE,105,0.0,3.0,28,0.00,,,0.00,0,WeatherCatV1.23B16,2013-12-26 13:10:00,
2013-12-26 05:15:00,34.4,3.1,30.48,ESE,106,0.0,1.0,26,0.00,,,0.00,0,WeatherCatV1.23B16,2013-12-26 13:15:00,
2013-12-26 05:20:00,34.3,3.8,30.48,ESE,106,1.0,2.0,27,0.00,,,0.00,0,WeatherCatV1.23B16,2013-12-26 13:20:00,
2013-12-26 05:25:00,34.3,4.6,30.48,ESE,105,2.0,2.0,28,0.00,,,0.00,0,WeatherCatV1.23B16,2013-12-26 13:25:00,
2013-12-26 05:30:00,34.4,4.7,30.48,ESE,106,0.0,3.0,28,0.00,,,0.00,0,WeatherCatV1.23B16,2013-12-26 13:30:00,
2013-12-26 05:35:00,34.6,4.9,30.48,ESE,107,0.0,3.0,28,0.00,,,0.00,0,WeatherCatV1.23B16,2013-12-26 13:35:00,
2013-12-26 05:40:00,34.9,5.1,30.48,East,101,0.0,3.0,28,0.00,,,0.00,0,WeatherCatV1.23B16,2013-12-26 13:40:00,
2013-12-26 05:45:00,35.0,5.2,30.46,ESE,107,2.0,5.0,28,0.00,,,0.00,0,WeatherCatV1.23B16,2013-12-26 13:45:00,
2013-12-26 05:50:00,35.2,4.6,30.46,ESE,107,2.0,2.0,27,0.00,,,0.00,0,WeatherCatV1.23B16,2013-12-26 13:50:00,
2013-12-26 05:55:00,35.2,4.6,30.46,ESE,106,2.0,4.0,27,0.00,,,0.00,0,WeatherCatV1.23B16,2013-12-26 13:55:00,
2013-12-26 06:00:00,35.0,4.4,30.47,ESE,103,0.0,3.0,27,0.00,,,0.00,0,WeatherCatV1.23B16,2013-12-26 14:00:00,
2013-12-26 06:05:00,35.0,4.4,30.47,ESE,107,2.0,3.0,27,0.00,,,0.00,0,WeatherCatV1.23B16,2013-12-26 14:05:00,
2013-12-26 06:10:00,35.2,4.6,30.47,ESE,105,0.0,3.0,27,0.00,,,0.00,0,WeatherCatV1.23B16,2013-12-26 14:10:00,
2013-12-26 06:15:00,35.2,4.6,30.45,ESE,103,2.0,2.0,27,0.00,,,0.00,0,WeatherCatV1.23B16,2013-12-26 14:15:00,
2013-12-26 06:20:00,35.2,4.6,30.45,ESE,103,1.0,2.0,27,0.00,,,0.00,0,WeatherCatV1.23B16,2013-12-26 14:20:00,
2013-12-26 06:25:00,35.2,4.6,30.45,ESE,103,0.0,2.0,27,0.00,,,0.00,0,WeatherCatV1.23B16,2013-12-26 14:25:00,
2013-12-26 06:30:00,35.0,4.4,30.46,ESE,103,0.0,2.0,27,0.00,,,0.00,0,WeatherCatV1.23B16,2013-12-26 14:30:00,
2013-12-26 06:35:00,35.0,4.4,30.46,ESE,103,0.0,3.0,27,0.00,,,0.00,0,WeatherCatV1.23B16,2013-12-26 14:35:00,
2013-12-26 06:40:00,35.0,3.6,30.46,ESE,103,0.0,2.0,26,0.00,,,0.00,0,WeatherCatV1.23B16,2013-12-26 14:40:00,
2013-12-26 06:45:00,35.0,4.4,30.46,ESE,103,0.0,0.0,27,0.00,,,0.00,0,WeatherCatV1.23B16,2013-12-26 14:45:00,
2013-12-26 06:50:00,34.9,3.5,30.46,ESE,103,0.0,0.0,26,0.00,,,0.00,0,WeatherCatV1.23B16,2013-12-26 14:50:00,
2013-12-26 06:55:00,34.7,3.4,30.46,ESE,103,0.0,1.0,26,0.00,,,0.00,0,WeatherCatV1.23B16,2013-12-26 14:55:00,
2013-12-26 07:00:00,34.7,2.5,30.45,ESE,103,0.0,2.0,25,0.00,,,0.00,0,WeatherCatV1.23B16,2013-12-26 15:00:00,
2013-12-26 07:05:00,34.9,2.7,30.45,ESE,104,0.0,2.0,25,0.00,,,0.00,0,WeatherCatV1.23B16,2013-12-26 15:05:00,
2013-12-26 07:10:00,35.2,3.0,30.45,ESE,103,0.0,2.0,25,0.00,,,0.00,0,WeatherCatV1.23B16,2013-12-26 15:10:00,
2013-12-26 07:15:00,35.5,2.3,30.45,ESE,103,0.0,1.0,24,0.00,,,0.00,0,WeatherCatV1.23B16,2013-12-26 15:15:00,
2013-12-26 07:20:00,35.5,3.2,30.45,ESE,106,0.0,1.0,25,0.00,,,0.00,5,WeatherCatV1.23B16,2013-12-26 15:20:00,
2013-12-26 07:25:00,35.3,2.2,30.45,ESE,106,0.0,0.0,24,0.00,,,0.00,7,WeatherCatV1.23B16,2013-12-26 15:25:00,
2013-12-26 07:30:00,35.3,2.2,30.48,ESE,106,0.0,3.0,24,0.00,,,0.00,9,WeatherCatV1.23B16,2013-12-26 15:30:00,
2013-12-26 07:35:00,35.5,1.4,30.48,ESE,102,2.0,5.0,23,0.00,,,0.00,11,WeatherCatV1.23B16,2013-12-26 15:35:00,
2013-12-26 07:40:00,35.9,0.8,30.48,East,92,2.0,5.0,22,0.00,,,0.00,12,WeatherCatV1.23B16,2013-12-26 15:40:00,
2013-12-26 07:45:00,36.2,1.1,30.46,ESE,113,1.0,6.0,22,0.00,,,0.00,14,WeatherCatV1.23B16,2013-12-26 15:45:00,
2013-12-26 07:50:00,36.6,0.4,30.46,East,101,0.0,4.0,21,0.00,,,0.00,19,WeatherCatV1.23B16,2013-12-26 15:50:00,
2013-12-26 07:55:00,36.8,0.6,30.46,East,100,0.0,2.0,21,0.00,,,0.00,25,WeatherCatV1.23B16,2013-12-26 15:55:00,
2013-12-26 08:00:00,36.9,5.2,30.46,East,100,0.0,0.0,26,0.00,,,0.00,44,WeatherCatV1.23B16,2013-12-26 16:00:00,
2013-12-26 08:05:00,36.9,5.2,30.46,East,100,0.0,0.0,26,0.00,,,0.00,33,WeatherCatV1.23B16,2013-12-26 16:05:00,
2013-12-26 08:10:00,36.8,3.4,30.46,East,99,0.0,3.0,24,0.00,,,0.00,32,WeatherCatV1.23B16,2013-12-26 16:10:00,
2013-12-26 08:15:00,36.8,6.0,30.46,East,99,0.0,3.0,27,0.00,,,0.00,47,WeatherCatV1.23B16,2013-12-26 16:15:00,
2013-12-26 08:20:00,36.8,5.2,30.46,East,99,0.0,0.0,26,0.00,,,0.00,39,WeatherCatV1.23B16,2013-12-26 16:20:00,
2013-12-26 08:25:00,36.6,4.2,30.46,East,97,0.0,3.0,25,0.00,,,0.00,46,WeatherCatV1.23B16,2013-12-26 16:25:00,
2013-12-26 08:30:00,36.8,2.5,30.46,East,97,0.0,2.0,23,0.00,,,0.00,33,WeatherCatV1.23B16,2013-12-26 16:30:00,
2013-12-26 08:35:00,37.8,0.4,30.46,East,83,0.0,5.0,20,0.00,,,0.00,65,WeatherCatV1.23B16,2013-12-26 16:35:00,
2013-12-26 08:40:00,39.1,1.5,30.46,ESE,109,0.0,3.0,20,0.00,,,0.00,25,WeatherCatV1.23B16,2013-12-26 16:40:00,
2013-12-26 08:45:00,39.8,-0.2,30.44,ENE,72,0.0,0.0,18,0.00,,,0.00,151,WeatherCatV1.23B16,2013-12-26 16:45:00,
2013-12-26 08:50:00,39.9,7.0,30.44,North,11,3.0,5.0,25,0.00,,,0.00,181,WeatherCatV1.23B16,2013-12-26 16:50:00,
2013-12-26 08:55:00,39.5,6.6,30.44,North,10,0.0,0.0,25,0.00,,,0.00,193,WeatherCatV1.23B16,2013-12-26 16:55:00,
2013-12-26 09:00:00,39.2,4.6,30.46,North,10,0.0,0.0,23,0.00,,,0.00,207,WeatherCatV1.23B16,2013-12-26 17:00:00,
2013-12-26 09:05:00,38.9,5.2,30.46,North,10,0.0,0.0,24,0.00,,,0.00,220,WeatherCatV1.23B16,2013-12-26 17:05:00,
2013-12-26 09:10:00,38.8,8.5,30.46,North,10,0.0,1.0,28,0.00,,,0.00,234,WeatherCatV1.23B16,2013-12-26 17:10:00,
2013-12-26 09:15:00,39.1,7.1,30.44,NNE,18,1.0,3.0,26,0.00,,,0.00,246,WeatherCatV1.23B16,2013-12-26 17:15:00,
2013-12-26 09:20:00,40.1,2.3,30.44,East,93,1.0,4.0,20,0.00,,,0.00,260,WeatherCatV1.23B16,2013-12-26 17:20:00,
2013-12-26 09:25:00,42.1,1.7,30.44,ESE,104,2.0,5.0,18,0.00,,,0.00,271,WeatherCatV1.23B16,2013-12-26 17:25:00,
2013-12-26 09:30:00,43.8,3.1,30.41,ESE,106,0.0,5.0,18,0.00,,,0.00,283,WeatherCatV1.23B16,2013-12-26 17:30:00,
2013-12-26 09:35:00,44.8,3.9,30.41,ESE,118,2.0,3.0,18,0.00,,,0.00,294,WeatherCatV1.23B16,2013-12-26 17:35:00,
2013-12-26 09:40:00,45.5,2.0,30.41,ESE,102,2.0,6.0,16,0.00,,,0.00,306,WeatherCatV1.23B16,2013-12-26 17:40:00,
2013-12-26 09:45:00,46.1,2.4,30.39,ESE,104,4.0,7.0,16,0.00,,,0.00,318,WeatherCatV1.23B16,2013-12-26 17:45:00,
2013-12-26 09:50:00,46.5,1.4,30.39,ESE,110,4.0,4.0,15,0.00,,,0.00,329,WeatherCatV1.23B16,2013-12-26 17:50:00,
2013-12-26 09:55:00,47.0,3.2,30.39,ESE,111,4.0,4.0,16,0.00,,,0.00,336,WeatherCatV1.23B16,2013-12-26 17:55:00,
2013-12-26 10:00:00,47.4,0.6,30.39,ESE,106,2.0,7.0,14,0.00,,,0.00,348,WeatherCatV1.23B16,2013-12-26 18:00:00,
2013-12-26 10:05:00,47.7,2.3,30.39,ESE,108,3.0,6.0,15,0.00,,,0.00,357,WeatherCatV1.23B16,2013-12-26 18:05:00,
2013-12-26 10:10:00,48.2,1.3,30.39,ESE,107,4.0,6.0,14,0.00,,,0.00,367,WeatherCatV1.23B16,2013-12-26 18:10:00,
2013-12-26 10:15:00,48.6,1.6,30.35,ESE,105,5.0,6.0,14,0.00,,,0.00,378,WeatherCatV1.23B16,2013-12-26 18:15:00,
2013-12-26 10:20:00,48.9,1.8,30.35,ESE,116,6.0,7.0,14,0.00,,,0.00,387,WeatherCatV1.23B16,2013-12-26 18:20:00,
2013-12-26 10:25:00,48.9,0.3,30.35,ESE,114,4.0,7.0,13,0.00,,,0.00,396,WeatherCatV1.23B16,2013-12-26 18:25:00,
2013-12-26 10:30:00,49.4,0.6,30.35,ESE,110,3.0,6.0,13,0.00,,,0.00,403,WeatherCatV1.23B16,2013-12-26 18:30:00,
2013-12-26 10:35:00,49.6,2.4,30.35,ESE,120,3.0,6.0,14,0.00,,,0.00,411,WeatherCatV1.23B16,2013-12-26 18:35:00,
2013-12-26 10:40:00,50.1,1.2,30.35,ESE,120,3.0,6.0,13,0.00,,,0.00,418,WeatherCatV1.23B16,2013-12-26 18:40:00,
2013-12-26 10:45:00,50.2,1.3,30.34,SSE,149,0.0,6.0,13,0.00,,,0.00,425,WeatherCatV1.23B16,2013-12-26 18:45:00,
2013-12-26 10:50:00,50.7,1.7,30.34,ESE,108,3.0,8.0,13,0.00,,,0.00,434,WeatherCatV1.23B16,2013-12-26 18:50:00,
2013-12-26 10:55:00,51.0,1.9,30.34,ESE,122,0.0,7.0,13,0.00,,,0.00,439,WeatherCatV1.23B16,2013-12-26 18:55:00,
2013-12-26 11:00:00,51.1,3.6,30.32,ESE,104,0.0,4.0,14,0.00,,,0.00,446,WeatherCatV1.23B16,2013-12-26 19:00:00,
2013-12-26 11:05:00,50.2,15.8,30.32,ESE,104,0.0,0.0,25,0.00,,,0.00,452,WeatherCatV1.23B16,2013-12-26 19:05:00,
2013-12-26 11:10:00,50.4,16.8,30.32,ESE,105,3.0,3.0,26,0.00,,,0.00,455,WeatherCatV1.23B16,2013-12-26 19:10:00,
2013-12-26 11:15:00,50.7,3.3,30.31,ENE,77,1.0,2.0,14,0.00,,,0.00,462,WeatherCatV1.23B16,2013-12-26 19:15:00,
2013-12-26 11:20:00,51.3,5.2,30.31,ESE,106,3.0,6.0,15,0.00,,,0.00,466,WeatherCatV1.23B16,2013-12-26 19:20:00,
2013-12-26 11:25:00,51.7,4.1,30.31,East,99,0.0,6.0,14,0.00,,,0.00,469,WeatherCatV1.23B16,2013-12-26 19:25:00,
2013-12-26 11:30:00,52.2,6.0,30.31,ESE,103,1.0,3.0,15,0.00,,,0.00,475,WeatherCatV1.23B16,2013-12-26 19:30:00,
2013-12-26 11:35:00,52.5,3.1,30.31,ESE,109,4.0,4.0,13,0.00,,,0.00,478,WeatherCatV1.23B16,2013-12-26 19:35:00,
2013-12-26 11:40:00,52.8,3.3,30.31,East,96,1.0,5.0,13,0.00,,,0.00,480,WeatherCatV1.23B16,2013-12-26 19:40:00,
2013-12-26 11:45:00,53.1,3.6,30.29,SE,139,2.0,5.0,13,0.00,,,0.00,483,WeatherCatV1.23B16,2013-12-26 19:45:00,
2013-12-26 11:50:00,53.3,2.0,30.29,SSE,148,0.0,6.0,12,0.00,,,0.00,487,WeatherCatV1.23B16,2013-12-26 19:50:00,
2013-12-26 11:55:00,53.6,2.2,30.29,ESE,113,6.0,7.0,12,0.00,,,0.00,487,WeatherCatV1.23B16,2013-12-26 19:55:00,
2013-12-26 12:00:00,53.3,-1.9,30.29,ESE,116,5.0,9.0,10,0.00,,,0.00,489,WeatherCatV1.23B16,2013-12-26 20:00:00,
2013-12-26 12:05:00,53.1,-2.0,30.29,ESE,118,4.0,6.0,10,0.00,,,0.00,489,WeatherCatV1.23B16,2013-12-26 20:05:00,
2013-12-26 12:10:00,52.9,-0.2,30.29,East,101,5.0,6.0,11,0.00,,,0.00,490,WeatherCatV1.23B16,2013-12-26 20:10:00,
2013-12-26 12:15:00,52.9,-0.2,30.30,ESE,106,3.0,6.0,11,0.00,,,0.00,490,WeatherCatV1.23B16,2013-12-26 20:15:00,
2013-12-26 12:20:00,53.1,0.0,30.30,ESE,111,1.0,5.0,11,0.00,,,0.00,489,WeatherCatV1.23B16,2013-12-26 20:20:00,
2013-12-26 12:25:00,53.1,0.0,30.30,ESE,110,1.0,5.0,11,0.00,,,0.00,489,WeatherCatV1.23B16,2013-12-26 20:25:00,
2013-12-26 12:30:00,52.8,1.6,30.30,East,99,5.0,6.0,12,0.00,,,0.00,487,WeatherCatV1.23B16,2013-12-26 20:30:00,
2013-12-26 12:35:00,52.5,-2.5,30.30,ESE,109,1.0,7.0,10,0.00,,,0.00,485,WeatherCatV1.23B16,2013-12-26 20:35:00,
2013-12-26 12:40:00,52.3,-2.6,30.30,SE,130,4.0,6.0,10,0.00,,,0.00,483,WeatherCatV1.23B16,2013-12-26 20:40:00,
2013-12-26 12:45:00,52.2,-0.7,30.30,ESE,110,2.0,7.0,11,0.00,,,0.00,480,WeatherCatV1.23B16,2013-12-26 20:45:00,
2013-12-26 12:50:00,52.2,-2.7,30.30,ESE,110,2.0,9.0,10,0.00,,,0.00,478,WeatherCatV1.23B16,2013-12-26 20:50:00,
2013-12-26 12:55:00,52.3,-0.6,30.30,ESE,113,2.0,6.0,11,0.00,,,0.00,475,WeatherCatV1.23B16,2013-12-26 20:55:00,
2013-12-26 13:00:00,52.3,1.2,30.29,ESE,116,5.0,5.0,12,0.00,,,0.00,471,WeatherCatV1.23B16,2013-12-26 21:00:00,
2013-12-26 13:05:00,52.2,1.2,30.29,ESE,103,4.0,6.0,12,0.00,,,0.00,468,WeatherCatV1.23B16,2013-12-26 21:05:00,
2013-12-26 13:10:00,52.0,-0.9,30.29,East,91,4.0,9.0,11,0.00,,,0.00,462,WeatherCatV1.23B16,2013-12-26 21:10:00,
2013-12-26 13:15:00,51.9,-0.9,30.27,East,97,1.0,6.0,11,0.00,,,0.00,457,WeatherCatV1.23B16,2013-12-26 21:15:00,
2013-12-26 13:20:00,51.7,0.8,30.27,ESE,109,4.0,7.0,12,0.00,,,0.00,452,WeatherCatV1.23B16,2013-12-26 21:20:00,
2013-12-26 13:25:00,51.6,0.7,30.27,East,100,0.0,6.0,12,0.00,,,0.00,446,WeatherCatV1.23B16,2013-12-26 21:25:00,
2013-12-26 13:30:00,51.4,0.5,30.28,ESE,113,3.0,5.0,12,0.00,,,0.00,441,WeatherCatV1.23B16,2013-12-26 21:30:00,
2013-12-26 13:35:00,51.6,0.7,30.28,ESE,110,5.0,9.0,12,0.00,,,0.00,434,WeatherCatV1.23B16,2013-12-26 21:35:00,
2013-12-26 13:40:00,51.6,2.4,30.28,ESE,103,2.0,5.0,13,0.00,,,0.00,427,WeatherCatV1.23B16,2013-12-26 21:40:00,
2013-12-26 13:45:00,51.6,-1.2,30.26,East,93,2.0,9.0,11,0.00,,,0.00,420,WeatherCatV1.23B16,2013-12-26 21:45:00,
2013-12-26 13:50:00,51.4,2.2,30.26,East,86,3.0,4.0,13,0.00,,,0.00,413,WeatherCatV1.23B16,2013-12-26 21:50:00,
2013-12-26 13:55:00,51.4,0.5,30.26,ENE,65,3.0,7.0,12,0.00,,,0.00,404,WeatherCatV1.23B16,2013-12-26 21:55:00,
2013-12-26 14:00:00,51.3,-1.4,30.28,ESE,119,4.0,7.0,11,0.00,,,0.00,397,WeatherCatV1.23B16,2013-12-26 22:00:00,
2013-12-26 14:05:00,51.3,0.4,30.28,ESE,103,0.0,5.0,12,0.00,,,0.00,388,WeatherCatV1.23B16,2013-12-26 22:05:00,
2013-12-26 14:10:00,51.4,2.2,30.28,ESE,116,4.0,6.0,13,0.00,,,0.00,378,WeatherCatV1.23B16,2013-12-26 22:10:00,
2013-12-26 14:15:00,51.3,5.2,30.29,ESE,122,0.0,5.0,15,0.00,,,0.00,369,WeatherCatV1.23B16,2013-12-26 22:15:00,
2013-12-26 14:20:00,51.0,3.5,30.29,ESE,106,1.0,6.0,14,0.00,,,0.00,352,WeatherCatV1.23B16,2013-12-26 22:20:00,
2013-12-26 14:25:00,50.7,3.3,30.29,East,101,2.0,5.0,14,0.00,,,0.00,348,WeatherCatV1.23B16,2013-12-26 22:25:00,
2013-12-26 14:30:00,50.4,-0.3,30.29,East,95,3.0,6.0,12,0.00,,,0.00,339,WeatherCatV1.23B16,2013-12-26 22:30:00,
2013-12-26 14:35:00,50.1,-0.5,30.29,East,83,3.0,6.0,12,0.00,,,0.00,40,WeatherCatV1.23B16,2013-12-26 22:35:00,
2013-12-26 14:40:00,49.9,1.0,30.29,ESE,104,0.0,4.0,13,0.00,,,0.00,23,WeatherCatV1.23B16,2013-12-26 22:40:00,
2013-12-26 14:43:00,49.8,2.5,30.29,ENE,78,4.0,7.0,14,0.00,,,0.00,23,WeatherCatV1.23B16,2013-12-26 22:43:00,
2013-12-26 14:48:00,49.4,-1.0,30.29,NE,53,2.0,9.0,12,0.00,,,0.00,21,WeatherCatV1.23B16,2013-12-26 22:48:00,
2013-12-26 14:53:00,49.1,4.9,30.29,ESE,106,2.0,5.0,16,0.00,,,0.00,21,WeatherCatV1.23B16,2013-12-26 22:53:00,
2013-12-26 14:58:00,48.6,4.5,30.29,ESE,114,5.0,7.0,16,0.00,,,0.00,21,WeatherCatV1.23B16,2013-12-26 22:58:00,
2013-12-26 15:03:00,48.2,5.5,30.31,ESE,114,0.0,6.0,17,0.00,,,0.00,21,WeatherCatV1.23B16,2013-12-26 23:03:00,
2013-12-26 15:08:00,47.7,6.3,30.31,ESE,108,1.0,4.0,18,0.00,,,0.00,21,WeatherCatV1.23B16,2013-12-26 23:08:00,
2013-12-26 15:13:00,47.4,7.2,30.31,ESE,113,0.0,4.0,19,0.00,,,0.00,21,WeatherCatV1.23B16,2013-12-26 23:13:00,
2013-12-26 15:18:00,47.1,5.8,30.32,ESE,114,2.0,5.0,18,0.00,,,0.00,19,WeatherCatV1.23B16,2013-12-26 23:18:00,
2013-12-26 15:23:00,46.8,5.6,30.32,ESE,105,2.0,4.0,18,0.00,,,0.00,19,WeatherCatV1.23B16,2013-12-26 23:23:00,
2013-12-26 15:28:00,46.7,6.7,30.32,ESE,111,0.0,4.0,19,0.00,,,0.00,28,WeatherCatV1.23B16,2013-12-26 23:28:00,
2013-12-26 15:33:00,46.5,7.6,30.32,ESE,103,1.0,6.0,20,0.00,,,0.00,23,WeatherCatV1.23B16,2013-12-26 23:33:00,
2013-12-26 15:38:00,46.2,7.4,30.32,ESE,116,1.0,4.0,20,0.00,,,0.00,19,WeatherCatV1.23B16,2013-12-26 23:38:00,
2013-12-26 15:40:00,46.2,6.2,30.32,East,101,3.0,3.0,19,0.00,,,0.00,19,WeatherCatV1.23B16,2013-12-26 23:40:00,
2013-12-26 15:45:00,46.0,4.9,30.33,ESE,102,0.0,1.0,18,0.00,,,0.00,18,WeatherCatV1.23B16,2013-12-26 23:45:00,
2013-12-26 15:50:00,45.7,4.7,30.33,ESE,103,0.0,3.0,18,0.00,,,0.00,18,WeatherCatV1.23B16,2013-12-26 23:50:00,
2013-12-26 15:52:00,45.5,4.5,30.33,ESE,106,0.0,4.0,18,0.00,,,0.00,18,WeatherCatV1.23B16,2013-12-26 23:52:00,
2013-12-26 15:57:00,45.4,3.2,30.33,SE,125,0.0,4.0,17,0.00,,,0.00,21,WeatherCatV1.23B16,2013-12-26 23:57:00,
2013-12-26 16:02:00,45.2,1.7,30.35,ESE,120,0.0,6.0,16,0.00,,,0.00,16,WeatherCatV1.23B16,2013-12-27 00:02:00,
2013-12-26 16:07:00,44.9,1.5,30.35,ESE,112,3.0,5.0,16,0.00,,,0.00,14,WeatherCatV1.23B16,2013-12-27 00:07:00,
2013-12-26 16:12:00,44.8,2.7,30.35,ESE,108,0.0,3.0,17,0.00,,,0.00,14,WeatherCatV1.23B16,2013-12-27 00:12:00,
2013-12-26 16:17:00,44.5,3.7,30.35,ESE,108,0.0,4.0,18,0.00,,,0.00,12,WeatherCatV1.23B16,2013-12-27 00:17:00,
2013-12-26 16:22:00,44.2,3.4,30.35,ESE,105,3.0,4.0,18,0.00,,,0.00,12,WeatherCatV1.23B16,2013-12-27 00:22:00,
2013-12-26 16:27:00,44.1,2.1,30.35,ESE,108,0.0,4.0,17,0.00,,,0.00,11,WeatherCatV1.23B16,2013-12-27 00:27:00,
2013-12-26 16:32:00,43.8,3.1,30.36,ESE,114,1.0,4.0,18,0.00,,,0.00,9,WeatherCatV1.23B16,2013-12-27 00:32:00,
2013-12-26 16:37:00,43.5,2.8,30.36,SE,124,4.0,5.0,18,0.00,,,0.00,7,WeatherCatV1.23B16,2013-12-27 00:37:00,
2013-12-26 16:42:00,43.3,1.5,30.36,SE,128,4.0,4.0,17,0.00,,,0.00,5,WeatherCatV1.23B16,2013-12-27 00:42:00,
2013-12-26 16:47:00,43.2,2.6,30.37,SE,124,3.0,5.0,18,0.00,,,0.00,0,WeatherCatV1.23B16,2013-12-27 00:47:00,
2013-12-26 16:52:00,42.9,2.3,30.37,SE,124,3.0,4.0,18,0.00,,,0.00,0,WeatherCatV1.23B16,2013-12-27 00:52:00,
2013-12-26 16:57:00,42.8,3.4,30.37,SE,124,3.0,4.0,19,0.00,,,0.00,0,WeatherCatV1.23B16,2013-12-27 00:57:00,
2013-12-26 17:02:00,42.6,0.9,30.37,ESE,120,3.0,4.0,17,0.00,,,0.00,0,WeatherCatV1.23B16,2013-12-27 01:02:00,
2013-12-26 17:07:00,42.8,-0.2,30.37,ESE,120,3.0,5.0,16,0.00,,,0.00,0,WeatherCatV1.23B16,2013-12-27 01:07:00,
2013-12-26 17:12:00,42.8,1.0,30.37,ESE,123,3.0,5.0,17,0.00,,,0.00,0,WeatherCatV1.23B16,2013-12-27 01:12:00,
2013-12-26 17:17:00,42.8,1.0,30.37,ESE,114,3.0,5.0,17,0.00,,,0.00,0,WeatherCatV1.23B16,2013-12-27 01:17:00,
2013-12-26 17:22:00,42.9,-1.5,30.37,ESE,116,3.0,4.0,15,0.00,,,0.00,0,WeatherCatV1.23B16,2013-12-27 01:22:00,
2013-12-26 17:27:00,42.9,-1.5,30.37,ESE,118,4.0,5.0,15,0.00,,,0.00,0,WeatherCatV1.23B16,2013-12-27 01:27:00,
2013-12-26 17:32:00,42.9,-3.0,30.37,ESE,119,3.0,4.0,14,0.00,,,0.00,0,WeatherCatV1.23B16,2013-12-27 01:32:00,
2013-12-26 17:37:00,42.9,-1.5,30.37,ESE,119,3.0,4.0,15,0.00,,,0.00,0,WeatherCatV1.23B16,2013-12-27 01:37:00,
2013-12-26 17:42:00,42.9,-3.0,30.37,ESE,120,3.0,5.0,14,0.00,,,0.00,0,WeatherCatV1.23B16,2013-12-27 01:42:00,
2013-12-26 17:47:00,42.9,-1.5,30.36,ESE,120,3.0,4.0,15,0.00,,,0.00,0,WeatherCatV1.23B16,2013-12-27 01:47:00,
2013-12-26 17:52:00,42.8,-4.6,30.36,ESE,108,4.0,5.0,13,0.00,,,0.00,0,WeatherCatV1.23B16,2013-12-27 01:52:00,
2013-12-26 17:57:00,42.8,-3.0,30.36,ESE,112,3.0,4.0,14,0.00,,,0.00,0,WeatherCatV1.23B16,2013-12-27 01:57:00,
2013-12-26 18:02:00,42.8,-3.0,30.37,ESE,114,3.0,4.0,14,0.00,,,0.00,0,WeatherCatV1.23B16,2013-12-27 02:02:00,
2013-12-26 18:07:00,42.9,-3.0,30.37,ESE,115,3.0,4.0,14,0.00,,,0.00,0,WeatherCatV1.23B16,2013-12-27 02:07:00,
2013-12-26 18:12:00,42.9,-4.5,30.37,ESE,116,4.0,4.0,13,0.00,,,0.00,0,WeatherCatV1.23B16,2013-12-27 02:12:00,
2013-12-26 18:17:00,42.9,-3.0,30.37,ESE,116,3.0,4.0,14,0.00,,,0.00,0,WeatherCatV1.23B16,2013-12-27 02:17:00,
2013-12-26 18:22:00,42.9,-3.0,30.37,ESE,116,2.0,3.0,14,0.00,,,0.00,0,WeatherCatV1.23B16,2013-12-27 02:22:00,
2013-12-26 18:27:00,42.5,-3.3,30.37,ESE,113,0.0,3.0,14,0.00,,,0.00,0,WeatherCatV1.23B16,2013-12-27 02:27:00,
2013-12-26 18:32:00,42.5,-4.8,30.38,ESE,114,2.0,4.0,13,0.00,,,0.00,0,WeatherCatV1.23B16,2013-12-27 02:32:00,
2013-12-26 18:37:00,42.6,-4.8,30.38,ESE,114,2.0,2.0,13,0.00,,,0.00,0,WeatherCatV1.23B16,2013-12-27 02:37:00,
2013-12-26 18:42:00,42.9,-4.5,30.38,ESE,113,0.0,0.0,13,0.00,,,0.00,0,WeatherCatV1.23B16,2013-12-27 02:42:00,
2013-12-26 18:47:00,42.9,-4.5,30.38,ESE,112,0.0,2.0,13,0.00,,,0.00,0,WeatherCatV1.23B16,2013-12-27 02:47:00,
2013-12-26 18:52:00,42.9,-4.5,30.38,ESE,112,0.0,2.0,13,0.00,,,0.00,0,WeatherCatV1.23B16,2013-12-27 02:52:00,
2013-12-26 18:57:00,42.9,-6.2,30.38,ESE,112,3.0,3.0,12,0.00,,,0.00,0,WeatherCatV1.23B16,2013-12-27 02:57:00,
2013-12-26 19:02:00,42.8,-6.2,30.38,ESE,110,0.0,2.0,12,0.00,,,0.00,0,WeatherCatV1.23B16,2013-12-27 03:02:00,
2013-12-26 19:07:00,42.8,-4.6,30.38,ESE,111,1.0,4.0,13,0.00,,,0.00,0,WeatherCatV1.23B16,2013-12-27 03:07:00,
2013-12-26 19:12:00,42.8,-6.2,30.38,ESE,108,3.0,3.0,12,0.00,,,0.00,0,WeatherCatV1.23B16,2013-12-27 03:12:00,
2013-12-26 19:17:00,42.8,-4.6,30.36,ESE,110,1.0,3.0,13,0.00,,,0.00,0,WeatherCatV1.23B16,2013-12-27 03:17:00,
2013-12-26 19:22:00,42.9,-4.5,30.36,ESE,109,2.0,2.0,13,0.00,,,0.00,0,WeatherCatV1.23B16,2013-12-27 03:22:00,
2013-12-26 19:27:00,43.1,-6.0,30.36,ESE,109,2.0,2.0,12,0.00,,,0.00,0,WeatherCatV1.23B16,2013-12-27 03:27:00,
2013-12-26 19:32:00,42.9,-6.2,30.36,ESE,111,2.0,4.0,12,0.00,,,0.00,0,WeatherCatV1.23B16,2013-12-27 03:32:00,
2013-12-26 19:37:00,42.8,-3.0,30.36,ESE,122,3.0,4.0,14,0.00,,,0.00,0,WeatherCatV1.23B16,2013-12-27 03:37:00,
2013-12-26 19:42:00,42.8,-4.6,30.36,ESE,122,3.0,4.0,13,0.00,,,0.00,0,WeatherCatV1.23B16,2013-12-27 03:42:00,
2013-12-26 19:47:00,42.8,-4.6,30.36,ESE,122,0.0,3.0,13,0.00,,,0.00,0,WeatherCatV1.23B16,2013-12-27 03:47:00,
2013-12-26 19:52:00,42.8,-4.6,30.36,ESE,122,0.0,1.0,13,0.00,,,0.00,0,WeatherCatV1.23B16,2013-12-27 03:52:00,
2013-12-26 19:57:00,42.8,3.4,30.36,ESE,122,0.0,0.0,19,0.00,,,0.00,0,WeatherCatV1.23B16,2013-12-27 03:57:00,
2013-12-26 20:02:00,42.6,6.4,30.36,ESE,122,0.0,0.0,22,0.00,,,0.00,0,WeatherCatV1.23B16,2013-12-27 04:02:00,
2013-12-26 20:07:00,42.5,4.3,30.36,ESE,122,0.0,0.0,20,0.00,,,0.00,0,WeatherCatV1.23B16,2013-12-27 04:07:00,
2013-12-26 20:12:00,42.2,4.0,30.36,ESE,122,0.0,0.0,20,0.00,,,0.00,0,WeatherCatV1.23B16,2013-12-27 04:12:00,
2013-12-26 20:17:00,41.9,1.5,30.36,ESE,122,0.0,3.0,18,0.00,,,0.00,0,WeatherCatV1.23B16,2013-12-27 04:17:00,
2013-12-26 20:22:00,41.6,-2.6,30.36,ESE,122,0.0,2.0,15,0.00,,,0.00,0,WeatherCatV1.23B16,2013-12-27 04:22:00,
2013-12-26 20:27:00,41.5,-2.7,30.36,ESE,122,0.0,0.0,15,0.00,,,0.00,0,WeatherCatV1.23B16,2013-12-27 04:27:00,
2013-12-26 20:32:00,41.2,-2.9,30.36,ESE,121,0.0,1.0,15,0.00,,,0.00,0,WeatherCatV1.23B16,2013-12-27 04:32:00,
2013-12-26 20:37:00,41.1,-4.4,30.36,ESE,121,0.0,0.0,14,0.00,,,0.00,0,WeatherCatV1.23B16,2013-12-27 04:37:00,
2013-12-26 20:42:00,41.1,-5.9,30.36,ENE,78,0.0,5.0,13,0.00,,,0.00,0,WeatherCatV1.23B16,2013-12-27 04:42:00,
2013-12-26 20:47:00,41.5,-5.6,30.36,ENE,78,0.0,2.0,13,0.00,,,0.00,0,WeatherCatV1.23B16,2013-12-27 04:47:00,
2013-12-26 20:52:00,41.6,-5.6,30.36,ENE,78,0.0,3.0,13,0.00,,,0.00,0,WeatherCatV1.23B16,2013-12-27 04:52:00,
2013-12-26 20:58:00,41.9,-5.3,30.36,ENE,77,0.0,0.0,13,0.00,,,0.00,0,WeatherCatV1.23B16,2013-12-27 04:58:00,
2013-12-26 21:02:00,42.1,-5.2,30.36,ENE,76,0.0,0.0,13,0.00,,,0.00,0,WeatherCatV1.23B16,2013-12-27 05:02:00,
2013-12-26 21:03:00,42.2,-5.1,30.36,ENE,76,0.0,0.0,13,0.00,,,0.00,0,WeatherCatV1.23B16,2013-12-27 05:03:00,
2013-12-26 21:04:00,42.2,-5.1,30.36,ENE,76,0.0,0.0,13,0.00,,,0.00,0,WeatherCatV1.23B16,2013-12-27 05:04:00,
2013-12-26 21:05:00,42.2,-5.1,30.36,ENE,76,0.0,0.0,13,0.00,,,0.00,0,WeatherCatV1.23B16,2013-12-27 05:05:00,
2013-12-26 21:09:00,42.2,-2.1,30.36,ENE,77,0.0,0.0,15,0.00,,,0.00,0,WeatherCatV1.23B16,2013-12-27 05:09:00,
2013-12-26 21:14:00,42.2,-3.5,30.36,ENE,77,0.0,0.0,14,0.00,,,0.00,0,WeatherCatV1.23B16,2013-12-27 05:14:00,
2013-12-26 21:16:00,42.2,-3.5,30.30,ENE,77,0.0,0.0,14,0.00,,,0.00,0,WeatherCatV1.23B16,2013-12-27 05:16:00,
2013-12-26 21:21:00,42.2,-3.5,30.30,ENE,77,0.0,0.0,14,0.00,,,0.00,0,WeatherCatV1.23B16,2013-12-27 05:21:00,
2013-12-26 21:26:00,42.3,-3.5,30.30,ENE,77,1.0,2.0,14,0.00,,,0.00,0,WeatherCatV1.23B16,2013-12-27 05:26:00,
2013-12-26 21:31:00,42.5,-3.3,30.28,ENE,77,0.0,0.0,14,0.00,,,0.00,0,WeatherCatV1.23B16,2013-12-27 05:31:00,
2013-12-26 21:36:00,42.5,-3.3,30.28,ENE,77,0.0,0.0,14,0.00,,,0.00,0,WeatherCatV1.23B16,2013-12-27 05:36:00,
2013-12-26 21:41:00,42.6,-4.8,30.28,ENE,77,0.0,0.0,13,0.00,,,0.00,0,WeatherCatV1.23B16,2013-12-27 05:41:00,
2013-12-26 21:46:00,42.6,-4.8,30.28,ENE,77,0.0,0.0,13,0.00,,,0.00,0,WeatherCatV1.23B16,2013-12-27 05:46:00,
2013-12-26 21:51:00,42.8,-4.6,30.28,ENE,77,0.0,3.0,13,0.00,,,0.00,0,WeatherCatV1.23B16,2013-12-27 05:51:00,
2013-12-26 21:56:00,43.1,-4.3,30.28,ENE,78,0.0,1.0,13,0.00,,,0.00,0,WeatherCatV1.23B16,2013-12-27 05:56:00,
2013-12-26 22:01:00,43.2,-4.3,30.28,ENE,78,0.0,0.0,13,0.00,,,0.00,0,WeatherCatV1.23B16,2013-12-27 06:01:00,
2013-12-26 22:06:00,43.2,-1.3,30.28,East,86,3.0,3.0,15,0.00,,,0.00,0,WeatherCatV1.23B16,2013-12-27 06:06:00,
2013-12-26 22:11:00,43.1,-2.8,30.28,East,98,0.0,3.0,14,0.00,,,0.00,0,WeatherCatV1.23B16,2013-12-27 06:11:00,
2013-12-26 22:16:00,42.8,-3.0,30.25,East,99,0.0,0.0,14,0.00,,,0.00,0,WeatherCatV1.23B16,2013-12-27 06:16:00,
2013-12-26 22:21:00,42.6,-0.4,30.25,SSE,147,3.0,4.0,16,0.00,,,0.00,0,WeatherCatV1.23B16,2013-12-27 06:21:00,
2013-12-26 22:26:00,42.5,-3.3,30.25,SSE,147,0.0,0.0,14,0.00,,,0.00,0,WeatherCatV1.23B16,2013-12-27 06:26:00,
2013-12-26 22:31:00,42.3,-5.0,30.26,SSE,147,0.0,0.0,13,0.00,,,0.00,0,WeatherCatV1.23B16,2013-12-27 06:31:00,
2013-12-26 22:36:00,42.2,-2.1,30.26,SSE,147,0.0,2.0,15,0.00,,,0.00,0,WeatherCatV1.23B16,2013-12-27 06:36:00,
2013-12-26 22:41:00,42.1,-2.2,30.26,SSE,147,0.0,0.0,15,0.00,,,0.00,0,WeatherCatV1.23B16,2013-12-27 06:41:00,
2013-12-26 22:46:00,42.1,-2.2,30.26,SSE,147,0.0,0.0,15,0.00,,,0.00,0,WeatherCatV1.23B16,2013-12-27 06:46:00,
2013-12-26 22:51:00,41.9,-2.3,30.26,SSE,147,0.0,0.0,15,0.00,,,0.00,0,WeatherCatV1.23B16,2013-12-27 06:51:00,
2013-12-26 22:56:00,41.9,-2.3,30.26,SSE,147,0.0,2.0,15,0.00,,,0.00,0,WeatherCatV1.23B16,2013-12-27 06:56:00,
2013-12-26 23:01:00,41.9,-2.3,30.26,SSE,147,0.0,0.0,15,0.00,,,0.00,0,WeatherCatV1.23B16,2013-12-27 07:01:00,
2013-12-26 23:06:00,41.9,-1.0,30.26,SSE,147,0.0,3.0,16,0.00,,,0.00,0,WeatherCatV1.23B16,2013-12-27 07:06:00,
2013-12-26 23:11:00,41.8,-2.4,30.26,SSE,147,0.0,0.0,15,0.00,,,0.00,0,WeatherCatV1.23B16,2013-12-27 07:11:00,
2013-12-26 23:16:00,41.6,-2.6,30.23,SSE,147,0.0,0.0,15,0.00,,,0.00,0,WeatherCatV1.23B16,2013-12-27 07:16:00,
2013-12-26 23:21:00,41.6,-2.6,30.23,SSE,147,0.0,0.0,15,0.00,,,0.00,0,WeatherCatV1.23B16,2013-12-27 07:21:00,
2013-12-26 23:26:00,41.3,-1.5,30.23,SSE,147,0.0,0.0,16,0.00,,,0.00,0,WeatherCatV1.23B16,2013-12-27 07:26:00,
2013-12-26 23:31:00,41.2,-0.3,30.25,SSE,147,0.0,0.0,17,0.00,,,0.00,0,WeatherCatV1.23B16,2013-12-27 07:31:00,
2013-12-26 23:36:00,40.9,-0.5,30.25,SSE,148,0.0,1.0,17,0.00,,,0.00,0,WeatherCatV1.23B16,2013-12-27 07:36:00,
2013-12-26 23:41:00,40.6,0.5,30.25,SSE,148,0.0,1.0,18,0.00,,,0.00,0,WeatherCatV1.23B16,2013-12-27 07:41:00,
2013-12-26 23:46:00,40.2,1.3,30.25,SSE,148,3.0,4.0,19,0.00,,,0.00,0,WeatherCatV1.23B16,2013-12-27 07:46:00,
2013-12-26 23:51:00,39.9,5.1,30.25,SSE,149,2.0,2.0,23,0.00,,,0.00,0,WeatherCatV1.23B16,2013-12-27 07:51:00,
2013-12-26 23:56:00,39.8,3.1,30.25,SSE,152,3.0,4.0,21,0.00,,,0.00,0,WeatherCatV1.23B16,2013-12-27 07:56:00,